This demonstration page uses our WeatherBlox Daily Observations layout. Learn more.

Left ArrowRight Arrow

41.86663, -103.66717

Hourly Observations for May 12, 2021

Temp ( °F °C ) Dew Point ( °F °C ) Humidity (%) Winds ( mph kmh ) Pressure ( in mb ) Visibility ( mi km ) Precip ( " mm )
12:53 am 00:53 Mostly Clear 39 3.9 35 1.7 86 86 E 9 15 30.29 1026 10 16 N/A
1:53 am 01:53 Clear 37 2.8 34 1.1 89 89 ESE 7 11 30.29 1026 10 16 N/A
2:53 am 02:53 Clear 35 1.7 33 0.6 93 93 ESE 5 7 30.29 1026 8 13 N/A
3:53 am 03:53 Clear 35 1.7 33 0.6 93 93 E 7 11 30.28 1025 7 11 N/A
4:53 am 04:53 Clear 35 1.7 33 0.6 93 93 E 7 11 30.30 1026 8 13 N/A
5:53 am 05:53 Sunny with Mist and Fog 35 1.7 33 0.6 93 93 E 9 15 30.30 1026 5 8 N/A
6:53 am 06:53 Sunny 38 3.3 36 2.2 93 93 ESE 9 15 30.30 1026 7 11 N/A
7:53 am 07:53 Sunny 44 6.7 39 3.9 83 83 ESE 10 17 30.29 1026 10 16 N/A
8:53 am 08:53 Sunny 48 8.9 41 5 77 77 SE 12 19 30.27 1025 10 16 N/A
9:53 am 09:53 Mostly Sunny 54 12.2 40 4.4 59 59 S 15 24 30.24 1024 10 16 N/A
10:53 am 10:53 Partly Cloudy 55 12.8 39 3.9 55 55 VRB 6 9 30.23 1024 10 16 N/A
11:53 am 11:53 Partly Cloudy 60 15.6 39 3.9 46 46 S 12 19 30.19 1023 10 16 N/A
12:53 pm 12:53 Sunny 62 16.7 38 3.3 41 41 SSE 10 17 30.17 1022 10 16 N/A
1:53 pm 13:53 Partly Cloudy 60 15.6 36 2.2 41 41 SSE 12 19 30.16 1021 10 16 N/A
2:53 pm 14:53 Sunny 60 15.6 39 3.9 46 46 S 13 20 30.16 1022 10 16 0.01 0.25
3:53 pm 15:53 Mostly Cloudy with Thunderstorms 52 11.1 40 4.4 64 64 W 12 19 30.19 1022 3 5 0.02 0.51
4:11 pm 16:11 Mostly Cloudy with Nearby Thunderstorms 57 13.9 52 11.1 83 83 W 9 15 30.08 1019 10 16 0.02 0.51
4:18 pm 16:18 Partly Cloudy 58 14.4 51 10.6 78 78 W 15 24 30.07 1018 10 16 0.02 0.51
4:53 pm 16:53 Sunny 62 16.7 52 11.1 70 70 NE 8 13 30.14 1021 10 16 0.02 0.51
5:53 pm 17:53 Sunny 61 16.1 41 5 48 48 E 7 11 30.15 1021 10 16 N/A
6:53 pm 18:53 Sunny 59 15 40 4.4 49 49 E 8 13 30.15 1021 10 16 N/A
7:53 pm 19:53 Sunny 53 11.7 43 6.1 69 69 ESE 12 19 30.18 1022 10 16 N/A
8:53 pm 20:53 Clear 50 10 42 5.6 74 74 E 9 15 30.21 1023 10 16 N/A
9:53 pm 21:53 Partly Cloudy 47 8.3 42 5.6 83 83 ESE 8 13 30.22 1023 10 16 N/A
10:53 pm 22:53 Clear 44 6.7 41 5 89 89 ESE 9 15 30.23 1024 10 16 N/A
11:53 pm 23:53 Clear 44 6.7 40 4.4 85 85 E 8 13 30.22 1023 10 16 N/A

Powered by AerisWeather